This demonstration page uses our WeatherBlox Daily Observations layout. Learn more.

Left ArrowRight Arrow

41.55636, -103.73856

Hourly Observations for July 8, 2015

Temp ( °F °C ) Dew Point ( °F °C ) Humidity (%) Winds ( mph kmh ) Pressure ( in mb ) Visibility ( mi km ) Precip ( " mm )
12:53 am 00:53 Cloudy 62 16.7 51 10.6 67 67 E 9 15 29.95 1014 9 14.48406 0 0
1:53 am 01:53 Cloudy 61 16.1 51 10.6 70 70 E 8 13 29.93 1014 9 14.48406 0 0
2:53 am 02:53 Cloudy 60 15.6 51 10.6 72 72 E 9 15 29.92 1013 8 12.87472 0 0
3:53 am 03:53 Mostly Cloudy 60 15.6 51 10.6 72 72 ESE 9 15 29.92 1013 8 12.87472 0 0
4:53 am 04:53 Cloudy 60 15.6 51 10.6 72 72 ESE 9 15 29.91 1013 8 12.87472 0 0
5:53 am 05:53 Cloudy 59 15 52 11.1 78 78 E 6 9 29.91 1013 8 12.87472 0 0
6:53 am 06:53 Cloudy with Haze 59 15 52 11.1 78 78 ESE 9 15 29.93 1014 6 9.65604 0 0
7:53 am 07:53 Cloudy with Light Rain 58 14.4 54 12.2 87 87 ESE 6 9 29.96 1014 5 8.0467 0 0.0254
8:48 am 08:48 Cloudy with Rain 57 14 54 12 88 88 ESE 8 13 29.97 1015 2.5 4.02335 0 0
8:53 am 08:53 Cloudy with Rain 57 13.9 55 12.8 93 93 ESE 8 13 29.98 1015 2 3.21868 0.06 1.524
9:28 am 09:28 Cloudy with Light Rain 57 14 54 12 88 88 ESE 9 15 29.97 1015 4 6.43736 0 0
9:51 am 09:51 Cloudy with Light Rain 57 14 54 12 88 88 E 9 15 29.97 1015 2.5 4.02335 0.09 2.286
9:53 am 09:53 Cloudy with Light Rain 57 13.9 54 12.2 90 90 E 9 15 29.98 1015 3 4.82802 0.09 2.286
10:17 am 10:17 Cloudy with Rain 57 13.9 55 12.8 93 93 E 7 11 29.97 1015 2 3.21868 0.05 1.27
10:53 am 10:53 Cloudy with Light Rain 57 13.9 55 12.8 93 93 E 8 13 30 1016 3 4.82802 0.17 4.318
11:44 am 11:44 Cloudy with Light Rain 59 15 55 13 88 88 E 8 13 29.97 1015 4 6.43736 0 0
11:53 am 11:53 Cloudy with Light Rain 59 15 56 13.3 90 90 ESE 8 13 30 1016 4 6.43736 0.03 0.762
12:22 pm 12:22 Cloudy with Light Rain 57 14 55 13 94 94 ESE 7 11 30 1016 4 6.43736 0 0
12:53 pm 12:53 Cloudy with Light Rain 58 14.4 55 12.8 90 90 E 7 11 30 1016 5 8.0467 0.03 0.762
1:53 pm 13:53 Cloudy with Light Rain 58 14.4 55 12.8 90 90 E 6 9 29.99 1016 5 8.0467 0 0.0254
2:13 pm 14:13 Cloudy with Light Rain 59 15 55 12.8 87 87 ESE 8 13 29.97 1015 4 6.43736 0.01 0.254
2:53 pm 14:53 Cloudy with Light Rain 59 15 56 13.3 90 90 ESE 9 15 29.99 1016 4 6.43736 0.03 0.762
3:11 pm 15:11 Cloudy with Light Rain 60 15.6 56 13.3 86 86 ESE 10 17 29.97 1015 5 8.0467 0.01 0.254
3:17 pm 15:17 Cloudy with Light Rain 59 15 56 13.3 90 90 ESE 13 20 29.97 1015 6 9.65604 0.01 0.254
3:53 pm 15:53 Cloudy with Mist and Fog 60 15.6 57 13.9 90 90 SE 10 17 29.99 1016 6 9.65604 0.01 0.254
4:13 pm 16:13 Cloudy with Mist and Fog 59 15 56 13.3 90 90 SE 12 19 29.94 1014 6 9.65604 0 0
4:24 pm 16:24 Cloudy with Mist and Fog 59 15 55 13 88 88 SE 13 20 29.94 1014 6 9.65604 0 0
4:53 pm 16:53 Cloudy 60 15.6 56 13.3 86 86 SSE 13 20 29.98 1015 8 12.87472 0 0
5:33 pm 17:33 Mostly Cloudy 62 16.7 56 13.3 80 80 SSE 9 15 29.91 1013 9 14.48406 0 0.0254
5:53 pm 17:53 Mostly Cloudy 61 16.1 55 12.8 81 81 SSE 8 13 29.98 1015 9 14.48406 0 0.0254
6:53 pm 18:53 Mostly Cloudy 61 16.1 55 12.8 81 81 SE 6 9 29.98 1015 8 12.87472 0 0
7:53 pm 19:53 Cloudy 61 16.1 55 12.8 81 81 SSE 6 9 30 1016 8 12.87472 0 0
8:42 pm 20:42 Partly Cloudy 57 14 54 12 88 88 Calm 30 1016 8 12.87472 0 0
8:53 pm 20:53 Clear 59 15 54 12.2 83 83 Calm 30.02 1017 9 14.48406 0 0
9:30 pm 21:30 Cloudy 59 15 55 13 88 88 SE 5 7 29.97 1015 8 12.87472 0 0
9:53 pm 21:53 Cloudy 59 15 55 12.8 87 87 SE 6 9 30.03 1017 8 12.87472 0 0
10:01 pm 22:01 Cloudy 59 15 56 13.3 90 90 SE 7 11 29.97 1015 8 12.87472 0 0
10:53 pm 22:53 Cloudy 59 15 56 13.3 90 90 SSE 8 13 30.03 1017 7 11.26538 0 0
11:53 pm 23:53 Cloudy 59 15 55 12.8 87 87 S 9 15 30.02 1017 8 12.87472 0 0

Powered by AerisWeather